CZ-3B DEB, 40850

Orbit data source: Space-Track

CZ-3B DEB, 40850 is space debris in HEO originally from a launch on Mon, 19 Dec 2011 UTC launched from the Xichang Space Center, China (XSC). Debris objects in space refer to the collection of defunct objects orbiting the Earth. Examples of debris include non-operational satellites, rocket bodies, and fragments generated from explosions, collisions, or faulty payload assembly.

Loading next visibility...
Identifier
40850, 2011-077AF
Orbit
HEO
Country
Flag of CNCN / PRC
Related business
Manufacturer
CALT
Mission
Spacecraft
Bus & Motor
Unknown
Mass
Unknown
Launch date (UTC)
2011-12-19 (14 years ago)
Launch vehicle
Unknown
Launch site
Xichang Space Center, China (XSC)
Object type
Payload
Rocket body
Debris
Shape & HBR
Unknown
Radar Cross Section
Medium (>0.1 m² and <1 m²)

Expand to show TLE details & history
Last TLE update: 2 days ago

TLE from 2 days ago
0 CZ-3B DEB
1 40850U 11077AF  25257.76106742  .00000148  00000-0  56332-3 0  9992
2 40850  25.9063 321.4382 7461523 123.8551 329.3257  1.92886074 73972
Epoch: 2025-09-14T18:15Z
TLE epoch observation values (Epoch: 2025-09-14T18:15:56.225Z)
Latitude
0.00038°
Longitude
53.54525°
Altitude
14,323.058 km
Speed
4.887 km/s
True Right ascension
21h 26m 01s
True Declination
0° 00' 01"
Sunlit
Object was in daylight at epoch
Visualization orbit readout
Latitude
Unknown
Longitude
Unknown
Altitude
Unknown
Speed
Unknown
Apparent Right ascension
Unknown
Apparent Declination
Unknown
Sunlit
N/A
Visualization observer readout
Local Sidereal Time
11:18:19
Azimuth
Unknown
Elevation
Unknown
Doppler factor
Unknown
Orbital elements
Apogee altitude
41,229.785 km
Perigee altitude
542.887 km
Semi-major axis
27,264.473 km
Eccentricity
0.74615
Inclination
25.9063°
RAAN
321.4382°
Arg. of periapsis
123.8551°
True anomaly
236.1404°
Mean anomaly
329.3257°
Eccentric anomaly
288.87264°
Mean motion
0.48211 °/min
Orbital period
746.72 mins
BSTAR
0.00056332
Loading maneuver chart data...
Computing Atmospheric mass density...
Loading historical data...
Loading historical data...
Loading historical data...
Loading historical data...
Loading historical data...
Loading historical data...
Loading historical data...

Documentation

Showing up to 5 results
|